Weather History for CYXH - March, 2013

Change the Weather History Date:

Saturday, March 2, 2013

  Actual Average Record
Temperature  
Mean Temperature -4 °F -  
Max Temperature 46 °F 41 °F 57 °F (2005)
Min Temperature -53 °F 20 °F -53 °F (2013)
Degree Days  
Heating Degree Days 68    
Moisture  
Dew Point 20 °F    
Average Humidity 71    
Maximum Humidity 93    
Minimum Humidity 36    
Precipitation  
Precipitation 0.00 in 0.02 in - ()
Sea Level Pressure  
Sea Level Pressure 30.13 in    
Wind  
Wind Speed 6 mph ()    
Max Wind Speed 14 mph    
Max Gust Speed -    
Visibility 10.6 miles    
Events      
Averages and records for this station are not official NWS values.
T = Trace of Precipitation, MM = Missing Value Source: Averaged Metar Reports

Daily Weather History Graph

Daily Weather History Graph

Search for Another Location

Airport or City:

Trip Planner

Search our weather history database for the weather conditions in past years. The results will help you decide how hot, cold, wet, or windy it might be!

Date:

Astronomy

Mar. 02, 2013 Rise Set
Actual Time 7:03 AM MST 6:07 PM MST
Civil Twilight 6:31 AM MST 6:39 PM MST
Nautical Twilight 5:53 AM MST 7:17 PM MST
Astronomical Twilight 5:16 AM MST 7:54 PM MST
Moon No Moon Rise 8:59 AM MST (3/2)
Length of Visible Light 12h 08m
Length of Day
11h 03m
Waning Gibbous, 73% of the Moon is Illuminated
Mar 2
Waning Gibbous
Mar 4
Last Quarter
Mar 11
New
Mar 19
First Quarter
Mar 27
Full

Hourly Weather History & Observations

Time (MST) Temp. Windchill Dew Point Humidity Pressure Visibility Wind Dir Wind Speed Gust Speed Precip Events Conditions
12:00 AM 35.6 °F 29.9 °F 32.0 °F 87% 30.09 in 9.0 mi WSW 6.9 mph - N/A   Clear
1:00 AM 33.8 °F 27.7 °F 30.2 °F 87% 30.09 in 9.0 mi WSW 6.9 mph - N/A   Clear
2:00 AM 35.6 °F 28.6 °F 32.0 °F 87% 30.09 in 9.0 mi SW 9.2 mph - N/A   Clear
4:00 AM 33.8 °F 25.8 °F 32.0 °F 93% 30.05 in 9.0 mi SW 10.4 mph - N/A   Clear
5:00 AM -52 °F - -61 °F 36% 30.88 in - South 10.4 mph - -  
5:00 AM 35.6 °F 29.2 °F 32.0 °F 87% 30.06 in 9.0 mi SW 8.1 mph - N/A   Mostly Cloudy
6:00 AM 35.6 °F 29.9 °F 32.0 °F 87% 30.07 in 15.0 mi West 6.9 mph - N/A   Overcast
7:00 AM 35.6 °F 29.2 °F 32.0 °F 87% 30.07 in 30.0 mi WSW 8.1 mph - N/A   Overcast
8:00 AM 35.6 °F 30.7 °F 32.0 °F 87% 30.05 in 30.0 mi WSW 5.8 mph - N/A   Overcast
9:00 AM 41.0 °F 36.4 °F 33.8 °F 76% 30.05 in 30.0 mi SSW 6.9 mph - N/A   Overcast
10:00 AM 44.6 °F 40.7 °F 35.6 °F 71% 30.04 in 30.0 mi WNW 6.9 mph - N/A   Overcast
11:00 AM -50 °F - -59 °F 37% 30.95 in - South 13.8 mph - -  
11:00 AM 46.4 °F - 35.6 °F 66% 30.04 in 30.0 mi Calm Calm - N/A   Overcast
12:00 PM 50.0 °F - 33.8 °F 54% 30.02 in 30.0 mi WSW 5.8 mph - N/A   Overcast
1:00 PM 50.0 °F - 33.8 °F 54% 30.01 in 30.0 mi WSW 4.6 mph - N/A   Overcast
2:00 PM 50.0 °F - 33.8 °F 54% 29.98 in 30.0 mi WSW 4.6 mph - N/A   Overcast
3:00 PM 50.0 °F - 33.8 °F 54% 29.95 in 30.0 mi West 2.3 mph - N/A   Overcast
4:00 PM 50.0 °F - 33.8 °F 54% 29.93 in 30.0 mi NNW 4.6 mph - N/A   Overcast
5:00 PM -48 °F - -57 °F 37% 30.99 in - South 13.8 mph - -  
5:00 PM 46.4 °F 45.2 °F 33.8 °F 62% 29.91 in 30.0 mi NNE 3.5 mph - N/A   Overcast
6:00 PM 41.0 °F 38.0 °F 35.6 °F 81% 29.89 in 30.0 mi Variable 4.6 mph - N/A   Overcast
7:00 PM 37.4 °F 33.8 °F 35.6 °F 93% 29.88 in 15.0 mi NE 4.6 mph - N/A   Overcast
8:00 PM 35.6 °F 31.7 °F 33.8 °F 93% 29.86 in 15.0 mi SW 4.6 mph - N/A   Overcast
9:00 PM 39.2 °F 35.9 °F 33.8 °F 81% 29.84 in 9.0 mi SW 4.6 mph - N/A   Overcast
10:00 PM 37.4 °F 32.8 °F 32.0 °F 81% 29.82 in 9.0 mi South 5.8 mph - N/A   Overcast
11:00 PM -46 °F - -54 °F 40% 31.00 in - South 9.2 mph - -  
11:00 PM 35.6 °F 32.8 °F 32.0 °F 87% 29.79 in 9.0 mi West 3.5 mph - N/A   Overcast